Location: Newark
(30.1000°N, 109.4667°E)
Time: 15:35:54
(UTC+00:00)

SR - Pass Details

Date: 26 February 2020
Orbit: 578 x 878 km, 66.7° (Epoch: 31 March)

Event Time Altitude Azimuth Distance (km) Brightness Sun altitude
Rises 14:56:25 0° 358° (N) 3,210 - -55.0°
Reaches altitude 10° 15:00:49 10° 32° (NNE) 2,192 - -55.8°
Maximum altitude 15:02:17 11° 50° (NE) 2,081 - -56.1°
Drops below altitude 10° 15:03:43 10° 67° (ENE) 2,131 - -56.4°
Sets 15:07:46 0° 103° (ESE) 2,959 - -57.1°
